Location: Newark
(42.7133°N, 87.7910°W)
Time: 14:50:33
(UTC+00:00)

Vanguard 1 - Pass Details

Date: 21 September 2019
Orbit: 653 x 3830 km, 34.2° (Epoch: 18 October)

Event Time Altitude Azimuth Distance (km) Brightness Sun altitude
Rises 04:37:24 0° 191° (S) 7,124 - -43.9°
Reaches altitude 10° 04:43:34 10° 178° (S) 6,485 - -44.4°
Maximum altitude 04:58:55 24° 134° (SE) 5,782 - -45.3°
Exits shadow 05:08:20 18° 105° (ESE) 6,119 13.8 -45.7°
Drops below altitude 10° 05:14:20 10° 91° (E) 6,615 14.1 -45.9°
Sets 05:20:30 0° 79° (E) 7,306 14.5 -46.1°
